Location: Earls Croome
(52.0667°N, 2.2000°W)
Time: 04:14:39
(UTC+00:00)

Cosmos 1459 Rocket - Pass Details

Date: 17 November 2019
Orbit: 938 x 999 km, 83.0° (Epoch: 10 December)

Event Time Altitude Azimuth Distance (km) Brightness Sun altitude
Rises 05:58:32 0° 206° (SSW) 3,637 6.9 -14.1°
Reaches altitude 10° 06:01:05 10° 212° (SSW) 2,704 6.1 -13.7°
Maximum altitude 06:07:06 51° 287° (WNW) 1,220 4.1 -12.8°
Drops below altitude 10° 06:13:16 10° 3° (N) 2,761 6.2 -11.9°
Sets 06:15:55 0° 9° (N) 3,721 7.0 -11.5°
